Year,Month,Day,Hour,Minute,Value (Times are PST for temperature in C)
2013,04,15,00,00,3.50
2013,04,15,00,01,3.50
2013,04,15,00,02,3.50
2013,04,15,00,03,3.50
2013,04,15,00,04,3.50
2013,04,15,00,05,3.40
2013,04,15,00,06,3.40
2013,04,15,00,07,3.40
2013,04,15,00,08,3.40
2013,04,15,00,09,3.40
2013,04,15,00,10,3.40
2013,04,15,00,11,3.30
2013,04,15,00,12,3.30
2013,04,15,00,13,3.30
2013,04,15,00,14,3.30
2013,04,15,00,15,3.30
2013,04,15,00,16,3.30
2013,04,15,00,17,3.30
2013,04,15,00,18,3.20
2013,04,15,00,19,3.20
2013,04,15,00,20,3.20
2013,04,15,00,21,3.20
2013,04,15,00,22,3.20
2013,04,15,00,23,3.20
2013,04,15,00,24,3.20
2013,04,15,00,25,3.10
2013,04,15,00,26,3.10
2013,04,15,00,27,3.10
2013,04,15,00,28,3.10
2013,04,15,00,29,3.10
2013,04,15,00,30,3.10
2013,04,15,00,31,3.10
2013,04,15,00,32,3.10
2013,04,15,00,33,3.10
2013,04,15,00,34,3.10
2013,04,15,00,35,3.00
2013,04,15,00,36,3.00
2013,04,15,00,37,3.00
2013,04,15,00,38,2.90
2013,04,15,00,39,2.90
2013,04,15,00,40,2.90
2013,04,15,00,41,2.90
2013,04,15,00,42,2.80
2013,04,15,00,43,2.80
2013,04,15,00,44,2.80
2013,04,15,00,45,2.80
2013,04,15,00,46,2.80
2013,04,15,00,47,2.80
2013,04,15,00,48,2.80
2013,04,15,00,49,2.80
2013,04,15,00,50,2.70
2013,04,15,00,51,2.80
2013,04,15,00,52,2.80
2013,04,15,00,53,2.80
2013,04,15,00,54,2.80
2013,04,15,00,55,2.80
2013,04,15,00,56,2.80
2013,04,15,00,57,2.80
2013,04,15,00,58,2.80
2013,04,15,00,59,2.80
2013,04,15,01,00,2.80
2013,04,15,01,01,2.80
2013,04,15,01,02,2.80
2013,04,15,01,03,2.80
2013,04,15,01,04,2.70
2013,04,15,01,05,2.70
2013,04,15,01,06,2.70
2013,04,15,01,07,2.70
2013,04,15,01,08,2.70
2013,04,15,01,09,2.70
2013,04,15,01,10,2.70
2013,04,15,01,11,2.70
2013,04,15,01,12,2.70
2013,04,15,01,13,2.60
2013,04,15,01,14,2.60
2013,04,15,01,15,2.60
2013,04,15,01,16,2.60
2013,04,15,01,17,2.60
2013,04,15,01,18,2.60
2013,04,15,01,19,2.60
2013,04,15,01,20,2.60
2013,04,15,01,21,2.60
2013,04,15,01,22,2.60
2013,04,15,01,23,2.60
2013,04,15,01,24,2.60
2013,04,15,01,25,2.60
2013,04,15,01,26,2.60
2013,04,15,01,27,2.60
2013,04,15,01,28,2.60
2013,04,15,01,29,2.60
2013,04,15,01,30,2.50
2013,04,15,01,31,2.50
2013,04,15,01,32,2.50
2013,04,15,01,33,2.50
2013,04,15,01,34,2.50
2013,04,15,01,35,2.50
2013,04,15,01,36,2.50
2013,04,15,01,37,2.50
2013,04,15,01,38,2.40
2013,04,15,01,39,2.40
2013,04,15,01,40,2.40
2013,04,15,01,41,2.40
2013,04,15,01,42,2.40
2013,04,15,01,43,2.40
2013,04,15,01,44,2.40
2013,04,15,01,45,2.30
2013,04,15,01,46,2.30
2013,04,15,01,47,2.30
2013,04,15,01,48,2.30
2013,04,15,01,49,2.30
2013,04,15,01,50,2.30
2013,04,15,01,51,2.30
2013,04,15,01,52,2.20
2013,04,15,01,53,2.20
2013,04,15,01,54,2.20
2013,04,15,01,55,2.20
2013,04,15,01,56,2.20
2013,04,15,01,57,2.20
2013,04,15,01,58,2.20
2013,04,15,01,59,2.20
2013,04,15,02,00,2.20
2013,04,15,02,01,2.20
2013,04,15,02,02,2.10
2013,04,15,02,03,2.10
2013,04,15,02,04,2.10
2013,04,15,02,05,2.10
2013,04,15,02,06,2.10
2013,04,15,02,07,2.10
2013,04,15,02,08,2.10
2013,04,15,02,09,2.10
2013,04,15,02,10,2.10
2013,04,15,02,11,2.10
2013,04,15,02,12,2.10
2013,04,15,02,13,2.10
2013,04,15,02,14,2.10
2013,04,15,02,15,2.10
2013,04,15,02,16,2.10
2013,04,15,02,17,2.10
2013,04,15,02,18,2.10
2013,04,15,02,19,2.10
2013,04,15,02,20,2.10
2013,04,15,02,21,2.10
2013,04,15,02,22,2.10
2013,04,15,02,23,2.10
2013,04,15,02,24,2.10
2013,04,15,02,25,2.10
2013,04,15,02,26,2.10
2013,04,15,02,27,2.10
2013,04,15,02,28,2.10
2013,04,15,02,29,2.10
2013,04,15,02,30,2.10
2013,04,15,02,31,2.10
2013,04,15,02,32,2.10
2013,04,15,02,33,2.10
2013,04,15,02,34,2.10
2013,04,15,02,35,2.10
2013,04,15,02,36,2.00
2013,04,15,02,37,2.00
2013,04,15,02,38,2.00
2013,04,15,02,39,2.00
2013,04,15,02,40,1.90
2013,04,15,02,41,1.90
2013,04,15,02,42,1.90
2013,04,15,02,43,1.80
2013,04,15,02,44,1.80
2013,04,15,02,45,1.80
2013,04,15,02,46,1.80
2013,04,15,02,47,1.80
2013,04,15,02,48,1.80
2013,04,15,02,49,1.80
2013,04,15,02,50,1.80
2013,04,15,02,51,1.80
2013,04,15,02,52,1.80
2013,04,15,02,53,1.80
2013,04,15,02,54,1.80
2013,04,15,02,55,1.80
2013,04,15,02,56,1.80
2013,04,15,02,57,1.80
2013,04,15,02,58,1.80
2013,04,15,02,59,1.90
2013,04,15,03,00,1.90
2013,04,15,03,01,1.90
2013,04,15,03,02,1.90
2013,04,15,03,03,1.90
2013,04,15,03,04,1.90
2013,04,15,03,05,1.90
2013,04,15,03,06,1.90
2013,04,15,03,07,2.00
2013,04,15,03,08,2.00
2013,04,15,03,09,2.00
2013,04,15,03,10,2.00
2013,04,15,03,11,2.00
2013,04,15,03,12,2.00
2013,04,15,03,13,1.90
2013,04,15,03,14,1.90
2013,04,15,03,15,1.90
2013,04,15,03,16,1.90
2013,04,15,03,17,2.00
2013,04,15,03,18,1.90
2013,04,15,03,19,1.90
2013,04,15,03,20,1.90
2013,04,15,03,21,1.90
2013,04,15,03,22,1.90
2013,04,15,03,23,1.90
2013,04,15,03,24,2.00
2013,04,15,03,25,2.00
2013,04,15,03,26,2.00
2013,04,15,03,27,2.00
2013,04,15,03,28,2.00
2013,04,15,03,29,2.00
2013,04,15,03,30,2.00
2013,04,15,03,31,1.90
2013,04,15,03,32,1.90
2013,04,15,03,33,1.90
2013,04,15,03,34,1.90
2013,04,15,03,35,1.80
2013,04,15,03,36,1.80
2013,04,15,03,37,1.80
2013,04,15,03,38,1.80
2013,04,15,03,39,1.70
2013,04,15,03,40,1.70
2013,04,15,03,41,1.70
2013,04,15,03,42,1.80
2013,04,15,03,43,1.80
2013,04,15,03,44,1.80
2013,04,15,03,45,1.80
2013,04,15,03,46,1.80
2013,04,15,03,47,1.80
2013,04,15,03,48,1.80
2013,04,15,03,49,1.80
2013,04,15,03,50,1.80
2013,04,15,03,51,1.80
2013,04,15,03,52,1.90
2013,04,15,03,53,1.90
2013,04,15,03,54,1.90
2013,04,15,03,55,1.90
2013,04,15,03,56,1.90
2013,04,15,03,57,1.90
2013,04,15,03,58,1.90
2013,04,15,03,59,1.90
2013,04,15,04,00,1.90
2013,04,15,04,01,1.90
2013,04,15,04,02,1.90
2013,04,15,04,03,1.90
2013,04,15,04,04,1.90
2013,04,15,04,05,1.90
2013,04,15,04,06,1.90
2013,04,15,04,07,1.90
2013,04,15,04,08,1.90
2013,04,15,04,09,1.80
2013,04,15,04,10,1.80
2013,04,15,04,11,1.80
2013,04,15,04,12,1.80
2013,04,15,04,13,1.80
2013,04,15,04,14,1.80
2013,04,15,04,15,1.80
2013,04,15,04,16,1.80
2013,04,15,04,17,1.80
2013,04,15,04,18,1.80
2013,04,15,04,19,1.90
2013,04,15,04,20,1.90
2013,04,15,04,21,1.80
2013,04,15,04,22,1.80
2013,04,15,04,23,1.80
2013,04,15,04,24,1.80
2013,04,15,04,25,1.90
2013,04,15,04,26,1.90
2013,04,15,04,27,1.90
2013,04,15,04,28,1.90
2013,04,15,04,29,1.90
2013,04,15,04,30,1.80
2013,04,15,04,31,1.80
2013,04,15,04,32,1.80
2013,04,15,04,33,1.80
2013,04,15,04,34,1.80
2013,04,15,04,35,1.80
2013,04,15,04,36,1.80
2013,04,15,04,37,1.80
2013,04,15,04,38,1.80
2013,04,15,04,39,1.80
2013,04,15,04,40,1.80
2013,04,15,04,41,1.80
2013,04,15,04,42,1.80
2013,04,15,04,43,1.80
2013,04,15,04,44,1.80
2013,04,15,04,45,1.80
2013,04,15,04,46,1.80
2013,04,15,04,47,1.80
2013,04,15,04,48,1.80
2013,04,15,04,49,1.80
2013,04,15,04,50,1.80
2013,04,15,04,51,1.80
2013,04,15,04,52,1.80
2013,04,15,04,53,1.70
2013,04,15,04,54,1.70
2013,04,15,04,55,1.70
2013,04,15,04,56,1.70
2013,04,15,04,57,1.80
2013,04,15,04,58,1.80
2013,04,15,04,59,1.90
2013,04,15,05,00,1.90
2013,04,15,05,01,2.00
2013,04,15,05,02,2.00
2013,04,15,05,03,2.00
2013,04,15,05,04,2.10
2013,04,15,05,05,2.10
2013,04,15,05,06,2.10
2013,04,15,05,07,2.10
2013,04,15,05,08,2.10
2013,04,15,05,09,2.10
2013,04,15,05,10,2.10
2013,04,15,05,11,2.00
2013,04,15,05,12,2.00
2013,04,15,05,13,1.90
2013,04,15,05,14,1.80
2013,04,15,05,15,1.80
2013,04,15,05,16,1.80
2013,04,15,05,17,1.80
2013,04,15,05,18,1.70
2013,04,15,05,19,1.70
2013,04,15,05,20,1.70
2013,04,15,05,21,1.70
2013,04,15,05,22,1.70
2013,04,15,05,23,1.70
2013,04,15,05,24,1.70
2013,04,15,05,25,1.70
2013,04,15,05,26,1.70
2013,04,15,05,27,1.70
2013,04,15,05,28,1.70
2013,04,15,05,29,1.70
2013,04,15,05,30,1.70
2013,04,15,05,31,1.60
2013,04,15,05,32,1.60
2013,04,15,05,33,1.60
2013,04,15,05,34,1.60
2013,04,15,05,35,1.60
2013,04,15,05,36,1.60
2013,04,15,05,37,1.60
2013,04,15,05,38,1.60
2013,04,15,05,39,1.60
2013,04,15,05,40,1.60
2013,04,15,05,41,1.60
2013,04,15,05,42,1.60
2013,04,15,05,43,1.60
2013,04,15,05,44,1.60
2013,04,15,05,45,1.60
2013,04,15,05,46,1.60
2013,04,15,05,47,1.60
2013,04,15,05,48,1.50
2013,04,15,05,49,1.50
2013,04,15,05,50,1.50
2013,04,15,05,51,1.50
2013,04,15,05,52,1.50
2013,04,15,05,53,1.50
2013,04,15,05,54,1.50
2013,04,15,05,55,1.40
2013,04,15,05,56,1.40
2013,04,15,05,57,1.40
2013,04,15,05,58,1.40
2013,04,15,05,59,1.40
2013,04,15,06,00,1.40
2013,04,15,06,01,1.40
2013,04,15,06,02,1.40
2013,04,15,06,03,1.40
2013,04,15,06,04,1.40
2013,04,15,06,05,1.30
2013,04,15,06,06,1.30
2013,04,15,06,07,1.30
2013,04,15,06,08,1.30
2013,04,15,06,09,1.30
2013,04,15,06,10,1.30
2013,04,15,06,11,1.30
2013,04,15,06,12,1.30
2013,04,15,06,13,1.30
2013,04,15,06,14,1.30
2013,04,15,06,15,1.30
2013,04,15,06,16,1.20
2013,04,15,06,17,1.20
2013,04,15,06,18,1.20
2013,04,15,06,19,1.20
2013,04,15,06,20,1.20
2013,04,15,06,21,1.20
2013,04,15,06,22,1.20
2013,04,15,06,23,1.10
2013,04,15,06,24,1.10
2013,04,15,06,25,1.10
2013,04,15,06,26,1.10
2013,04,15,06,27,1.10
2013,04,15,06,28,1.10
2013,04,15,06,29,1.10
2013,04,15,06,30,1.00
2013,04,15,06,31,1.00
2013,04,15,06,32,1.00
2013,04,15,06,33,0.90
2013,04,15,06,34,0.90
2013,04,15,06,35,0.80
2013,04,15,06,36,0.80
2013,04,15,06,37,0.70
2013,04,15,06,38,0.70
2013,04,15,06,39,0.70
2013,04,15,06,40,0.70
2013,04,15,06,41,0.70
2013,04,15,06,42,0.70
2013,04,15,06,43,0.70
2013,04,15,06,44,0.70
2013,04,15,06,45,0.70
2013,04,15,06,46,0.70
2013,04,15,06,47,0.70
2013,04,15,06,48,0.70
2013,04,15,06,49,0.80
2013,04,15,06,50,0.80
2013,04,15,06,51,0.80
2013,04,15,06,52,0.80
2013,04,15,06,53,0.80
2013,04,15,06,54,0.80
2013,04,15,06,55,0.90
2013,04,15,06,56,0.90
2013,04,15,06,57,0.90
2013,04,15,06,58,0.90
2013,04,15,06,59,0.90
2013,04,15,07,00,0.90
2013,04,15,07,01,0.90
2013,04,15,07,02,0.90
2013,04,15,07,03,0.90
2013,04,15,07,04,0.90
2013,04,15,07,05,0.90
2013,04,15,07,06,0.90
2013,04,15,07,07,0.90
2013,04,15,07,08,0.90
2013,04,15,07,09,0.90
2013,04,15,07,10,0.90
2013,04,15,07,11,0.90
2013,04,15,07,12,0.90
2013,04,15,07,13,0.90
2013,04,15,07,14,0.90
2013,04,15,07,15,0.90
2013,04,15,07,16,0.90
2013,04,15,07,17,0.90
2013,04,15,07,18,0.90
2013,04,15,07,19,0.90
2013,04,15,07,20,0.90
2013,04,15,07,21,0.90
2013,04,15,07,22,0.90
2013,04,15,07,23,0.90
2013,04,15,07,24,0.90
2013,04,15,07,25,0.90
2013,04,15,07,26,0.80
2013,04,15,07,27,0.80
2013,04,15,07,28,0.80
2013,04,15,07,29,0.80
2013,04,15,07,30,0.80
2013,04,15,07,31,0.80
2013,04,15,07,32,0.80
2013,04,15,07,33,0.70
2013,04,15,07,34,0.70
2013,04,15,07,35,0.70
2013,04,15,07,36,0.70
2013,04,15,07,37,0.70
2013,04,15,07,38,0.70
2013,04,15,07,39,0.70
2013,04,15,07,40,0.70
2013,04,15,07,41,0.70
2013,04,15,07,42,0.70
2013,04,15,07,43,0.70
2013,04,15,07,44,0.70
2013,04,15,07,45,0.70
2013,04,15,07,46,0.70
2013,04,15,07,47,0.70
2013,04,15,07,48,0.70
2013,04,15,07,49,0.70
2013,04,15,07,50,0.70
2013,04,15,07,51,0.70
2013,04,15,07,52,0.70
2013,04,15,07,53,0.70
2013,04,15,07,54,0.70
2013,04,15,07,55,0.70
2013,04,15,07,56,0.70
2013,04,15,07,57,0.70
2013,04,15,07,58,0.70
2013,04,15,07,59,0.80
2013,04,15,08,00,0.80
2013,04,15,08,01,0.80
2013,04,15,08,02,0.80
2013,04,15,08,03,0.80
2013,04,15,08,04,0.80
2013,04,15,08,05,0.80
2013,04,15,08,06,0.80
2013,04,15,08,07,0.80
2013,04,15,08,08,0.80
2013,04,15,08,09,0.80
2013,04,15,08,10,0.80
2013,04,15,08,11,0.70
2013,04,15,08,12,0.70
2013,04,15,08,13,0.70
2013,04,15,08,14,0.70
2013,04,15,08,15,0.70
2013,04,15,08,16,0.70
2013,04,15,08,17,0.70
2013,04,15,08,18,0.70
2013,04,15,08,19,0.70
2013,04,15,08,20,0.60
2013,04,15,08,21,0.70
2013,04,15,08,22,0.70
2013,04,15,08,23,0.70
2013,04,15,08,24,0.70
2013,04,15,08,25,0.70
2013,04,15,08,26,0.70
2013,04,15,08,27,0.70
2013,04,15,08,28,0.70
2013,04,15,08,29,0.70
2013,04,15,08,30,0.70
2013,04,15,08,31,0.70
2013,04,15,08,32,0.70
2013,04,15,08,33,0.70
2013,04,15,08,34,0.70
2013,04,15,08,35,0.70
2013,04,15,08,36,0.70
2013,04,15,08,37,0.80
2013,04,15,08,38,0.80
2013,04,15,08,39,0.80
2013,04,15,08,40,0.80
2013,04,15,08,41,0.80
2013,04,15,08,42,0.80
2013,04,15,08,43,0.80
2013,04,15,08,44,0.90
2013,04,15,08,45,0.90
2013,04,15,08,46,0.90
2013,04,15,08,47,0.90
2013,04,15,08,48,0.90
2013,04,15,08,49,0.90
2013,04,15,08,50,0.90
2013,04,15,08,51,1.00
2013,04,15,08,52,1.00
2013,04,15,08,53,1.00
2013,04,15,08,54,1.00
2013,04,15,08,55,1.00
2013,04,15,08,56,1.10
2013,04,15,08,57,1.10
2013,04,15,08,58,1.10
2013,04,15,08,59,1.10
2013,04,15,09,00,1.10
2013,04,15,09,01,1.20
2013,04,15,09,02,1.20
2013,04,15,09,03,1.20
2013,04,15,09,04,1.20
2013,04,15,09,05,1.20
2013,04,15,09,06,1.30
2013,04,15,09,07,1.30
2013,04,15,09,08,1.30
2013,04,15,09,09,1.40
2013,04,15,09,10,1.40
2013,04,15,09,11,1.40
2013,04,15,09,12,1.40
2013,04,15,09,13,1.40
2013,04,15,09,14,1.40
2013,04,15,09,15,1.40
2013,04,15,09,16,1.40
2013,04,15,09,17,1.40
2013,04,15,09,18,1.50
2013,04,15,09,19,1.40
2013,04,15,09,20,1.50
2013,04,15,09,21,1.50
2013,04,15,09,22,1.50
2013,04,15,09,23,1.60
2013,04,15,09,24,1.60
2013,04,15,09,25,1.60
2013,04,15,09,26,1.70
2013,04,15,09,27,1.70
2013,04,15,09,28,1.80
2013,04,15,09,29,1.80
2013,04,15,09,30,1.80
2013,04,15,09,31,1.90
2013,04,15,09,32,1.90
2013,04,15,09,33,2.00
2013,04,15,09,34,2.00
2013,04,15,09,35,2.00
2013,04,15,09,36,2.00
2013,04,15,09,37,2.00
2013,04,15,09,38,2.00
2013,04,15,09,39,1.90
2013,04,15,09,40,2.00
2013,04,15,09,41,2.00
2013,04,15,09,42,2.10
2013,04,15,09,43,2.10
2013,04,15,09,44,2.20
2013,04,15,09,45,2.30
2013,04,15,09,46,2.30
2013,04,15,09,47,2.30
2013,04,15,09,48,2.30
2013,04,15,09,49,2.40
2013,04,15,09,50,2.50
2013,04,15,09,51,2.50
2013,04,15,09,52,2.60
2013,04,15,09,53,2.70
2013,04,15,09,54,2.70
2013,04,15,09,55,2.80
2013,04,15,09,56,3.00
2013,04,15,09,57,3.10
2013,04,15,09,58,3.20
2013,04,15,09,59,3.30
2013,04,15,10,00,3.40
2013,04,15,10,01,3.50
2013,04,15,10,02,3.60
2013,04,15,10,03,3.70
2013,04,15,10,04,3.80
2013,04,15,10,05,4.00
2013,04,15,10,06,4.10
2013,04,15,10,07,4.20
2013,04,15,10,08,4.30
2013,04,15,10,09,4.50
2013,04,15,10,10,4.60
2013,04,15,10,11,4.70
2013,04,15,10,12,4.80
2013,04,15,10,13,4.80
2013,04,15,10,14,4.90
2013,04,15,10,15,5.00
2013,04,15,10,16,5.00
2013,04,15,10,17,5.10
2013,04,15,10,18,5.20
2013,04,15,10,19,5.30
2013,04,15,10,20,5.30
2013,04,15,10,21,5.30
2013,04,15,10,22,5.30
2013,04,15,10,23,5.40
2013,04,15,10,24,5.40
2013,04,15,10,25,5.40
2013,04,15,10,26,5.50
2013,04,15,10,27,5.50
2013,04,15,10,28,5.60
2013,04,15,10,29,5.60
2013,04,15,10,30,5.60
2013,04,15,10,31,5.70
2013,04,15,10,32,5.70
2013,04,15,10,33,5.70
2013,04,15,10,34,5.80
2013,04,15,10,35,5.90
2013,04,15,10,36,5.90
2013,04,15,10,37,6.00
2013,04,15,10,38,6.00
2013,04,15,10,39,6.00
2013,04,15,10,40,6.10
2013,04,15,10,41,6.10
2013,04,15,10,42,6.20
2013,04,15,10,43,6.20
2013,04,15,10,44,6.30
2013,04,15,10,45,6.40
2013,04,15,10,46,6.40
2013,04,15,10,47,6.50
2013,04,15,10,48,6.60
2013,04,15,10,49,6.70
2013,04,15,10,50,6.70
2013,04,15,10,51,6.70
2013,04,15,10,52,6.80
2013,04,15,10,53,6.80
2013,04,15,10,54,7.00
2013,04,15,10,55,7.10
2013,04,15,10,56,7.20
2013,04,15,10,57,7.20
2013,04,15,10,58,7.30
2013,04,15,10,59,7.40
2013,04,15,11,00,7.50
2013,04,15,11,01,7.60
2013,04,15,11,02,7.60
2013,04,15,11,03,7.70
2013,04,15,11,04,7.70
2013,04,15,11,05,7.80
2013,04,15,11,06,7.80
2013,04,15,11,07,7.80
2013,04,15,11,08,7.80
2013,04,15,11,09,7.80
2013,04,15,11,10,7.80
2013,04,15,11,11,7.80
2013,04,15,11,12,7.90
2013,04,15,11,13,7.90
2013,04,15,11,14,8.00
2013,04,15,11,15,8.10
2013,04,15,11,16,8.10
2013,04,15,11,17,8.20
2013,04,15,11,18,8.20
2013,04,15,11,19,8.30
2013,04,15,11,20,8.40
2013,04,15,11,21,8.50
2013,04,15,11,22,8.60
2013,04,15,11,23,8.60
2013,04,15,11,24,8.70
2013,04,15,11,25,8.70
2013,04,15,11,26,8.80
2013,04,15,11,27,8.80
2013,04,15,11,28,8.90
2013,04,15,11,29,8.90
2013,04,15,11,30,9.00
2013,04,15,11,31,9.10
2013,04,15,11,32,9.10
2013,04,15,11,33,9.00
2013,04,15,11,34,9.00
2013,04,15,11,35,9.10
2013,04,15,11,36,9.10
2013,04,15,11,37,9.10
2013,04,15,11,38,9.20
2013,04,15,11,39,9.20
2013,04,15,11,40,9.20
2013,04,15,11,41,9.20
2013,04,15,11,42,9.40
2013,04,15,11,43,9.50
2013,04,15,11,44,9.60
2013,04,15,11,45,9.80
2013,04,15,11,46,9.90
2013,04,15,11,47,10.10
2013,04,15,11,48,10.20
2013,04,15,11,49,10.30
2013,04,15,11,50,10.50
2013,04,15,11,51,10.50
2013,04,15,11,52,10.60
2013,04,15,11,53,10.80
2013,04,15,11,54,11.00
2013,04,15,11,55,11.10
2013,04,15,11,56,11.20
2013,04,15,11,57,11.30
2013,04,15,11,58,11.40
2013,04,15,11,59,11.50
2013,04,15,12,00,11.60
2013,04,15,12,01,11.70
2013,04,15,12,02,11.90
2013,04,15,12,03,12.00
2013,04,15,12,04,12.20
2013,04,15,12,05,12.30
2013,04,15,12,06,12.40
2013,04,15,12,07,12.50
2013,04,15,12,08,12.60
2013,04,15,12,09,12.60
2013,04,15,12,10,12.70
2013,04,15,12,11,12.80
2013,04,15,12,12,12.90
2013,04,15,12,13,12.90
2013,04,15,12,14,12.90
2013,04,15,12,15,12.90
2013,04,15,12,16,13.00
2013,04,15,12,17,13.10
2013,04,15,12,18,13.20
2013,04,15,12,19,13.30
2013,04,15,12,20,13.30
2013,04,15,12,21,13.40
2013,04,15,12,22,13.50
2013,04,15,12,23,13.60
2013,04,15,12,24,13.60
2013,04,15,12,25,13.60
2013,04,15,12,26,13.70
2013,04,15,12,27,13.70
2013,04,15,12,28,13.60
2013,04,15,12,29,13.70
2013,04,15,12,30,13.70
2013,04,15,12,31,13.70
2013,04,15,12,32,13.80
2013,04,15,12,33,13.80
2013,04,15,12,34,13.80
2013,04,15,12,35,13.80
2013,04,15,12,36,13.90
2013,04,15,12,37,14.00
2013,04,15,12,38,14.10
2013,04,15,12,39,14.20
2013,04,15,12,40,14.20
2013,04,15,12,41,14.20
2013,04,15,12,42,14.20
2013,04,15,12,43,14.20
2013,04,15,12,44,14.20
2013,04,15,12,45,14.30
2013,04,15,12,46,14.30
2013,04,15,12,47,14.40
2013,04,15,12,48,14.40
2013,04,15,12,49,14.50
2013,04,15,12,50,14.50
2013,04,15,12,51,14.50
2013,04,15,12,52,14.50
2013,04,15,12,53,14.50
2013,04,15,12,54,14.50
2013,04,15,12,55,14.50
2013,04,15,12,56,14.50
2013,04,15,12,57,14.50
2013,04,15,12,58,14.60
2013,04,15,12,59,14.70
2013,04,15,13,00,14.70
2013,04,15,13,01,14.60
2013,04,15,13,02,14.60
2013,04,15,13,03,14.50
2013,04,15,13,04,14.50
2013,04,15,13,05,14.60
2013,04,15,13,06,14.70
2013,04,15,13,07,14.80
2013,04,15,13,08,14.80
2013,04,15,13,09,14.80
2013,04,15,13,10,14.70
2013,04,15,13,11,14.70
2013,04,15,13,12,14.70
2013,04,15,13,13,14.70
2013,04,15,13,14,14.80
2013,04,15,13,15,14.80
2013,04,15,13,16,14.80
2013,04,15,13,17,14.90
2013,04,15,13,18,14.90
2013,04,15,13,19,14.90
2013,04,15,13,20,15.00
2013,04,15,13,21,15.00
2013,04,15,13,22,15.00
2013,04,15,13,23,15.00
2013,04,15,13,24,15.00
2013,04,15,13,25,15.00
2013,04,15,13,26,15.00
2013,04,15,13,27,15.10
2013,04,15,13,28,15.10
2013,04,15,13,29,15.10
2013,04,15,13,30,15.20
2013,04,15,13,31,15.20
2013,04,15,13,32,15.20
2013,04,15,13,33,15.30
2013,04,15,13,34,15.30
2013,04,15,13,35,15.30
2013,04,15,13,36,15.30
2013,04,15,13,37,15.30
2013,04,15,13,38,15.30
2013,04,15,13,39,15.20
2013,04,15,13,40,15.20
2013,04,15,13,41,15.20
2013,04,15,13,42,15.20
2013,04,15,13,43,15.20
2013,04,15,13,44,15.20
2013,04,15,13,45,15.30
2013,04,15,13,46,15.30
2013,04,15,13,47,15.20
2013,04,15,13,48,15.10
2013,04,15,13,49,15.20
2013,04,15,13,50,15.20
2013,04,15,13,51,15.20
2013,04,15,13,52,15.20
2013,04,15,13,53,15.20
2013,04,15,13,54,15.30
2013,04,15,13,55,15.40
2013,04,15,13,56,15.40
2013,04,15,13,57,15.40
2013,04,15,13,58,15.40
2013,04,15,13,59,15.40
2013,04,15,14,00,15.60
2013,04,15,14,01,15.60
2013,04,15,14,02,15.70
2013,04,15,14,03,15.70
2013,04,15,14,04,15.60
2013,04,15,14,05,15.60
2013,04,15,14,06,15.60
2013,04,15,14,07,15.60
2013,04,15,14,08,15.50
2013,04,15,14,09,15.50
2013,04,15,14,10,15.60
2013,04,15,14,11,15.60
2013,04,15,14,12,15.60
2013,04,15,14,13,15.70
2013,04,15,14,14,15.70
2013,04,15,14,15,15.80
2013,04,15,14,16,15.90
2013,04,15,14,17,15.90
2013,04,15,14,18,16.00
2013,04,15,14,19,16.10
2013,04,15,14,20,16.10
2013,04,15,14,21,16.10
2013,04,15,14,22,16.10
2013,04,15,14,23,16.10
2013,04,15,14,24,16.00
2013,04,15,14,25,16.00
2013,04,15,14,26,15.90
2013,04,15,14,27,15.90
2013,04,15,14,28,16.00
2013,04,15,14,29,16.00
2013,04,15,14,30,16.10
2013,04,15,14,31,16.20
2013,04,15,14,32,16.20
2013,04,15,14,33,16.20
2013,04,15,14,34,16.30
2013,04,15,14,35,16.30
2013,04,15,14,36,16.40
2013,04,15,14,37,16.40
2013,04,15,14,38,16.40
2013,04,15,14,39,16.40
2013,04,15,14,40,16.40
2013,04,15,14,41,16.40
2013,04,15,14,42,16.40
2013,04,15,14,43,16.40
2013,04,15,14,44,16.50
2013,04,15,14,45,16.50
2013,04,15,14,46,16.50
2013,04,15,14,47,16.50
2013,04,15,14,48,16.40
2013,04,15,14,49,16.50
2013,04,15,14,50,16.50
2013,04,15,14,51,16.60
2013,04,15,14,52,16.60
2013,04,15,14,53,16.50
2013,04,15,14,54,16.50
2013,04,15,14,55,16.50
2013,04,15,14,56,16.40
2013,04,15,14,57,16.40
2013,04,15,14,58,16.50
2013,04,15,14,59,16.50
2013,04,15,15,00,16.60
2013,04,15,15,01,16.60
2013,04,15,15,02,16.60
2013,04,15,15,03,16.50
2013,04,15,15,04,16.50
2013,04,15,15,05,16.50
2013,04,15,15,06,16.50
2013,04,15,15,07,16.50
2013,04,15,15,08,16.60
2013,04,15,15,09,16.60
2013,04,15,15,10,16.70
2013,04,15,15,11,16.70
2013,04,15,15,12,16.80
2013,04,15,15,13,16.80
2013,04,15,15,14,16.80
2013,04,15,15,15,16.80
2013,04,15,15,16,16.80
2013,04,15,15,17,16.70
2013,04,15,15,18,16.70
2013,04,15,15,19,16.80
2013,04,15,15,20,16.80
2013,04,15,15,21,16.80
2013,04,15,15,22,16.80
2013,04,15,15,23,16.80
2013,04,15,15,24,16.80
2013,04,15,15,25,16.80
2013,04,15,15,26,16.80
2013,04,15,15,27,16.80
2013,04,15,15,28,16.90
2013,04,15,15,29,17.00
2013,04,15,15,30,17.00
2013,04,15,15,31,17.00
2013,04,15,15,32,16.90
2013,04,15,15,33,16.80
2013,04,15,15,34,16.80
2013,04,15,15,35,16.80
2013,04,15,15,36,16.80
2013,04,15,15,37,16.80
2013,04,15,15,38,16.80
2013,04,15,15,39,16.80
2013,04,15,15,40,16.80
2013,04,15,15,41,16.70
2013,04,15,15,42,16.70
2013,04,15,15,43,16.70
2013,04,15,15,44,16.70
2013,04,15,15,45,16.70
2013,04,15,15,46,16.70
2013,04,15,15,47,16.60
2013,04,15,15,48,16.50
2013,04,15,15,49,16.50
2013,04,15,15,50,16.50
2013,04,15,15,51,16.40
2013,04,15,15,52,16.40
2013,04,15,15,53,16.30
2013,04,15,15,54,16.30
2013,04,15,15,55,16.20
2013,04,15,15,56,16.20
2013,04,15,15,57,16.10
2013,04,15,15,58,16.00
2013,04,15,15,59,15.90
2013,04,15,16,00,15.80
2013,04,15,16,01,15.80
2013,04,15,16,02,15.80
2013,04,15,16,03,15.70
2013,04,15,16,04,15.60
2013,04,15,16,05,15.50
2013,04,15,16,06,15.50
2013,04,15,16,07,15.40
2013,04,15,16,08,15.40
2013,04,15,16,09,15.30
2013,04,15,16,10,15.30
2013,04,15,16,11,15.20
2013,04,15,16,12,15.20
2013,04,15,16,13,15.10
2013,04,15,16,14,15.10
2013,04,15,16,15,15.10
2013,04,15,16,16,15.00
2013,04,15,16,17,15.00
2013,04,15,16,18,14.90
2013,04,15,16,19,14.80
2013,04,15,16,20,14.70
2013,04,15,16,21,14.70
2013,04,15,16,22,14.60
2013,04,15,16,23,14.60
2013,04,15,16,24,14.40
2013,04,15,16,25,14.40
2013,04,15,16,26,14.30
2013,04,15,16,27,14.30
2013,04,15,16,28,14.20
2013,04,15,16,29,14.10
2013,04,15,16,30,14.10
2013,04,15,16,31,14.00
2013,04,15,16,32,13.90
2013,04,15,16,33,13.80
2013,04,15,16,34,13.70
2013,04,15,16,35,13.70
2013,04,15,16,36,13.60
2013,04,15,16,37,13.50
2013,04,15,16,38,13.40
2013,04,15,16,39,13.40
2013,04,15,16,40,13.40
2013,04,15,16,41,13.40
2013,04,15,16,42,13.50
2013,04,15,16,43,13.60
2013,04,15,16,44,13.70
2013,04,15,16,45,13.90
2013,04,15,16,46,14.10
2013,04,15,16,47,14.40
2013,04,15,16,48,14.60
2013,04,15,16,49,14.80
2013,04,15,16,50,15.00
2013,04,15,16,51,15.20
2013,04,15,16,52,15.40
2013,04,15,16,53,15.60
2013,04,15,16,54,15.70
2013,04,15,16,55,15.80
2013,04,15,16,56,15.90
2013,04,15,16,57,16.00
2013,04,15,16,58,16.10
2013,04,15,16,59,16.10
2013,04,15,17,00,16.10
2013,04,15,17,01,16.10
2013,04,15,17,02,16.20
2013,04,15,17,03,16.20
2013,04,15,17,04,16.30
2013,04,15,17,05,16.40
2013,04,15,17,06,16.40
2013,04,15,17,07,16.50
2013,04,15,17,08,16.50
2013,04,15,17,09,16.60
2013,04,15,17,10,16.60
2013,04,15,17,11,16.60
2013,04,15,17,12,16.60
2013,04,15,17,13,16.70
2013,04,15,17,14,16.70
2013,04,15,17,15,16.80
2013,04,15,17,16,16.80
2013,04,15,17,17,16.90
2013,04,15,17,18,16.80
2013,04,15,17,19,16.80
2013,04,15,17,20,16.70
2013,04,15,17,21,16.70
2013,04,15,17,22,16.70
2013,04,15,17,23,16.70
2013,04,15,17,24,16.60
2013,04,15,17,25,16.60
2013,04,15,17,26,16.50
2013,04,15,17,27,16.50
2013,04,15,17,28,16.40
2013,04,15,17,29,16.30
2013,04,15,17,30,16.30
2013,04,15,17,31,16.20
2013,04,15,17,32,16.10
2013,04,15,17,33,16.00
2013,04,15,17,34,15.90
2013,04,15,17,35,15.90
2013,04,15,17,36,15.80
2013,04,15,17,37,15.70
2013,04,15,17,38,15.70
2013,04,15,17,39,15.80
2013,04,15,17,40,15.80
2013,04,15,17,41,15.80
2013,04,15,17,42,15.70
2013,04,15,17,43,15.70
2013,04,15,17,44,15.70
2013,04,15,17,45,15.70
2013,04,15,17,46,15.60
2013,04,15,17,47,15.60
2013,04,15,17,48,15.50
2013,04,15,17,49,15.30
2013,04,15,17,50,15.30